Probability
0 0 0 0 0 0 0 0 0 0 0 0 0 0 0 0 0 0 0 0 0 0 0 0 0 0 0 0 0 0 0 0 1 2 3 3 2 1 0 0 0 0 0 0
0 0 0 0 0 0 0 0 0 0 0 0 0 0 0 0 0 0 0 0 0 0 0 0 0 0 0 0 0 0 0 0 0 1 2 2 2 1 1 1 1 0 0 0
0 0 0 0 0 0 0 0 0 0 0 0 0 0 0 0 0 0 0 0 0 0 0 0 0 0 0 0 0 0 0 0 0 0 1 1 1 1 1 1 2 1 1 0
0 0 0 0 0 0 0 0 0 0 0 0 0 0 0 0 0 0 0 0 0 0 0 0 0 0 0 0 0 0 0 0 0 0 0 0 0 0 0 1 2 2 2 1
0 0 0 0 0 0 0 0 0 0 0 0 0 0 0 0 0 0 0 0 0 0 0 0 0 0 0 0 0 0 0 0 0 0 0 0 0 0 0 0 1 1 2 2
0 0 0 0 0 0 0 0 0 0 0 0 0 0 0 0 0 0 0 0 0 0 0 0 0 0 0 0 0 0 0 0 0 0 0 0 0 0 0 0 0 0 1 2
0 0 0 0 0 0 0 0 0 0 0 0 0 0 0 0 0 0 0 0 0 0 0 0 0 0 0 0 0 0 0 0 0 0 0 0 0 0 0 0 0 0 0 1
0 0 0 0 0 0 0 0 0 0 0 0 0 0 0 0 0 0 0 0 0 0 0 0 0 0 0 0 0 0 0 0 0 0 0 0 0 0 0 0 0 0 0 0
0 0 0 0 0 0 0 0 0 0 0 0 0 0 0 0 0 0 0 0 0 0 0 0 0 0 0 0 0 0 0 0 0 0 0 0 0 0 0 0 0 0 0 0
0 0 0 0 0 0 0 0 0 0 0 0 0 0 0 0 0 0 0 0 0 0 0 0 0 0 0 0 0 0 0 0 0 0 0 0 0 0 0 0 0 0 0 0
0 0 0 0 0 0 0 0 0 0 0 0 0 0 0 0 0 0 0 0 0 0 0 0 0 0 0 0 0 0 0 0 0 0 0 0 0 0 0 0 0 0 0 0
0 0 0 0 0 0 0 0 0 0 0 0 0 0 0 0 0 0 0 0 0 0 0 0 0 0 0 0 0 0 0 0 0 0 0 0 0 0 0 0 0 0 0 0
0 0 0 0 0 0 0 0 0 0 0 0 0 0 0 0 0 0 0 0 0 0 0 0 0 0 0 0 0 0 0 0 0 0 0 0 0 0 0 0 0 0 0 0
0 0 0 0 0 0 0 0 0 0 0 0 0 0 0 0 0 0 0 0 0 0 0 0 0 0 0 0 0 0 0 0 0 0 0 0 0 0 0 0 0 0 0 0
0 0 0 0 0 0 0 0 0 0 0 0 0 0 0 0 0 0 0 0 0 0 0 0 0 0 0 0 0 0 0 0 0 0 0 0 0 0 0 0 0 0 0 0
0 0 0 0 0 0 0 0 0 0 0 0 0 0 0 0 0 0 0 0 0 0 0 0 0 0 0 0 0 0 0 0 0 0 0 0 0 0 0 0 0 0 0 0
0 0 0 0 0 0 0 0 0 0 0 0 0 0 0 0 0 0 0 0 0 0 0 0 0 0 0 0 0 0 0 0 0 0 0 0 0 0 0 0 0 0 0 0
0 0 0 0 0 0 0 0 0 0 0 0 0 0 0 0 0 0 0 0 0 0 0 0 0 0 0 0 0 0 0 0 0 0 0 0 0 0 0 0 0 0 0 0
0 0 0 0 0 0 0 0 0 0 0 0 0 0 0 0 0 0 0 0 0 0 0 0 0 0 0 0 0 0 0 0 0 0 0 0 0 0 0 0 0 0 0 0
0 0 0 0 0 0 0 0 0 0 0 0 0 0 0 0 0 0 0 0 0 0 0 0 0 0 0 0 0 0 0 0 0 0 0 0 0 0 0 0 0 0 0 0
0 0 0 0 0 0 0 0 0 0 0 0 0 0 0 0 0 0 0 0 0 0 0 0 0 0 0 0 0 0 0 0 0 0 0 0 0 0 0 0 0 0 0 0
0 0 0 0 0 0 0 0 0 0 0 0 0 0 0 0 0 0 0 0 0 0 0 0 0 0 0 0 0 0 0 0 0 0 0 0 0 0 0 0 0 0 0 0
0 0 0 0 0 0 0 0 0 0 0 0 0 0 0 0 0 0 0 0 0 0 0 0 0 0 0 0 0 0 0 0 0 0 0 0 0 0 0 0 0 0 0 0
0 0 0 0 0 0 0 0 0 0 0 0 0 0 0 0 0 0 0 0 0 0 0 0 0 0 0 0 0 0 0 0 0 0 0 0 0 0 0 0 0 0 0 0
0 0 0 0 0 0 0 0 0 0 0 0 0 0 0 0 0 0 0 0 0 0 0 0 0 0 0 0 0 0 0 0 0 0 0 0 0 0 0 0 0 0 0 0
0 0 0 0 0 0 0 0 0 0 0 0 0 0 0 0 0 0 0 0 0 0 0 0 0 0 0 0 0 0 0 0 0 0 0 0 0 0 0 0 0 0 0 0
Wind_Speed
8 10 15 18 20 11 11 12 13 9 6 10 16 19 18 14 13 15 14 14 14 14 14 11 11 11 11 11 12 13 13 13 11 9 9 9 9 9 8 9 10 11 11 11
9 17 16 13 14 13 12 13 13 7 5 8 12 19 18 18 18 18 18 17 16 15 13 12 11 11 12 12 13 13 13 13 13 11 10 8 8 8 9 8 10 11 11 11
18 9 12 12 14 17 17 16 14 9 4 7 10 17 19 17 17 17 18 18 18 16 16 13 12 12 12 13 13 11 13 13 14 13 9 7 7 6 7 9 9 11 12 12
16 12 11 15 16 17 17 14 12 11 9 8 8 14 15 13 15 16 17 17 17 16 15 14 13 13 13 13 12 12 13 13 13 13 11 13 10 10 10 8 8 9 11 11
13 12 14 17 17 16 9 7 11 12 12 12 11 13 14 9 15 16 16 16 16 15 14 14 13 13 12 11 10 11 12 12 12 13 14 14 12 10 8 8 9 9 9 10
11 8 12 13 10 13 7 5 5 7 9 15 18 16 16 12 15 14 13 13 14 13 12 13 12 11 10 9 8 9 11 12 12 13 13 14 14 13 11 10 9 8 7 7
12 12 9 7 9 11 12 9 6 8 10 14 10 15 17 10 12 13 13 13 11 11 11 11 11 10 10 9 9 8 10 11 11 12 13 14 14 14 13 11 10 9 7 7
14 14 16 13 14 13 18 17 13 11 11 9 9 16 13 7 9 10 11 11 10 11 10 10 10 10 9 9 9 9 9 9 9 10 12 12 12 10 9 10 9 8 7 7
12 10 8 12 11 15 15 17 15 10 6 9 11 13 12 7 9 10 11 11 11 10 9 9 9 9 8 8 8 8 8 8 9 9 9 9 10 10 9 9 8 7 6 5
8 8 6 7 7 14 14 12 8 11 12 16 15 18 14 10 12 11 11 11 10 8 7 7 7 7 6 6 6 6 7 7 7 7 7 6 7 8 8 8 8 7 7 6
8 7 6 8 14 16 13 14 12 10 10 12 15 14 7 10 10 10 9 8 7 7 7 6 5 5 4 4 4 4 5 5 5 6 6 6 6 6 6 5 6 5 5 5
8 6 8 11 9 10 14 16 16 12 11 10 12 12 3 6 6 6 6 7 7 6 6 6 5 4 4 4 4 4 4 4 5 5 5 5 5 5 5 5 5 5 5 4
6 6 6 6 7 7 12 14 17 13 10 11 14 14 4 5 6 7 7 7 7 6 6 5 4 4 4 5 4 4 4 4 4 4 4 4 4 4 5 4 4 4 4 4
6 7 10 13 8 8 11 14 15 14 12 15 19 20 14 11 10 9 9 9 8 8 7 6 6 6 5 5 5 5 4 4 4 4 4 4 4 4 3 3 3 3 3 3
4 8 10 12 11 10 13 16 18 20 19 17 20 23 22 17 14 13 11 10 10 9 9 9 8 7 6 6 6 5 5 4 4 4 4 4 3 3 3 3 3 2 2 2
4 5 6 10 12 12 14 18 20 22 21 23 24 26 21 17 13 12 12 12 12 11 11 11 10 9 8 7 7 6 5 4 5 5 5 4 3 3 3 3 3 2 2 2
5 4 5 9 8 8 15 19 21 20 21 21 25 26 19 16 15 15 13 13 13 13 12 11 10 10 8 8 7 7 6 4 5 5 4 4 4 3 3 3 3 3 2 2
8 7 5 5 5 16 14 11 17 21 22 21 21 21 19 19 16 13 12 13 14 13 12 11 9 9 7 6 6 5 4 5 5 4 4 3 4 3 3 3 3 2 2 2
12 9 6 6 10 13 13 11 13 16 20 19 21 22 20 15 11 13 13 13 14 13 10 9 8 7 6 5 5 5 5 5 5 4 4 4 4 4 4 3 3 2 2 2
8 10 8 8 10 13 12 8 8 10 17 16 18 21 18 12 12 13 9 9 10 8 6 5 4 4 4 4 4 5 5 5 5 5 4 3 3 4 4 3 2 1 1 1
6 8 12 13 13 13 11 5 6 11 13 9 12 15 14 14 14 9 5 5 5 5 4 3 3 3 3 3 4 5 5 5 4 3 3 2 3 3 3 2 2 1 1 1
10 10 11 11 13 15 5 5 9 9 7 7 8 9 10 11 9 7 5 5 4 4 2 2 2 1 1 3 4 4 4 3 2 3 3 3 2 2 2 2 2 2 2 1
11 10 7 10 11 8 6 9 8 6 8 8 7 7 7 8 8 7 6 5 4 3 2 2 2 1 0 1 2 3 2 2 3 4 3 3 2 2 2 3 3 2 2 2
9 8 10 11 14 13 13 11 10 9 9 8 7 7 7 9 8 7 5 4 2 2 2 2 3 2 1 0 0 1 1 2 3 4 4 3 3 2 2 1 2 2 2 2
11 8 10 14 15 13 13 12 11 9 7 7 7 7 8 8 8 7 5 4 3 2 2 2 3 2 2 1 0 0 1 3 3 3 3 3 2 2 2 1 1 2 2 2
13 13 14 15 12 11 11 8 8 9 10 9 8 8 6 6 7 6 4 3 3 2 2 2 2 2 2 1 1 0 1 2 3 3 3 2 2 2 2 2 1 0 1 1
Wind_Direction
189 203 210 208 212 233 220 220 226 228 213 219 235 246 249 242 243 246 245 245 244 246 249 244 237 229 225 222 219 217 215 212 206 203 204 208 214 215 217 219 221 220 218 216
199 224 222 214 212 219 222 228 235 238 222 236 252 256 255 251 246 246 248 246 245 246 246 241 235 228 223 222 220 219 217 213 208 207 205 208 211 216 219 219 221 222 221 219
214 221 203 205 210 217 227 230 231 232 235 241 270 265 249 243 241 244 245 246 247 245 246 244 237 231 226 224 222 219 218 215 211 208 205 202 208 216 215 218 220 221 220 220
228 226 209 211 217 215 231 229 231 235 241 246 233 267 252 238 237 237 240 240 242 242 244 244 242 238 231 229 226 224 222 218 214 207 205 204 207 213 217 217 218 219 218 221
217 207 207 217 220 214 230 213 224 232 241 254 235 255 261 229 239 237 235 237 238 239 241 243 243 241 240 235 229 225 222 219 214 209 208 210 216 222 223 218 219 220 218 219
233 220 218 225 220 210 191 185 221 232 235 246 236 239 261 227 235 238 232 232 234 238 242 246 248 246 244 237 229 225 221 220 216 211 210 212 217 219 220 219 219 220 220 220
224 225 220 208 196 196 197 190 206 213 221 241 221 230 252 238 231 234 234 234 235 236 238 241 244 243 240 234 226 221 218 220 216 212 212 213 217 219 220 221 222 222 220 220
210 221 208 204 205 200 206 207 214 225 231 238 212 233 251 241 233 238 240 241 241 240 241 244 246 245 240 235 229 223 220 221 217 213 213 213 215 218 221 222 222 221 221 222
211 224 198 206 209 202 208 219 229 245 264 261 239 246 261 248 239 235 236 236 237 241 246 250 252 249 246 241 236 229 224 222 219 215 213 213 213 214 216 217 219 221 222 220
221 229 218 206 210 217 222 209 205 215 227 241 247 245 242 221 221 225 227 231 235 244 254 260 260 256 253 249 245 237 228 223 219 214 209 207 208 211 213 213 214 215 217 217
221 226 220 201 209 208 204 208 214 219 226 234 248 247 234 226 218 217 223 234 242 247 255 260 261 258 255 252 245 235 226 219 213 208 204 201 203 203 203 206 210 213 214 214
209 217 231 229 232 236 222 218 214 221 226 231 248 253 183 217 230 232 237 240 246 252 259 263 264 260 251 244 240 233 223 216 212 203 195 195 197 198 200 204 209 209 212 214
188 199 219 227 224 220 225 225 224 233 240 235 242 252 219 233 249 250 248 251 256 259 265 266 261 256 249 240 233 227 221 216 209 196 191 189 190 193 199 202 204 204 205 207
208 219 223 231 232 209 223 227 225 224 233 239 242 254 250 252 257 258 256 259 263 261 261 259 257 256 250 244 238 233 227 214 200 191 191 191 192 194 196 192 193 198 198 201
214 235 240 252 255 235 234 233 231 232 236 243 249 252 256 257 257 258 262 262 259 258 258 257 252 249 247 245 243 235 228 212 197 192 194 197 190 184 182 182 184 184 188 195
213 234 242 252 248 247 250 242 237 237 241 246 254 258 260 263 258 255 253 253 257 258 258 258 252 246 242 238 235 228 223 208 199 203 201 190 179 174 176 177 175 173 178 180
208 210 233 250 254 256 246 236 234 236 235 240 247 255 260 256 251 250 249 249 250 254 255 252 247 243 240 235 227 224 216 202 199 205 200 188 181 178 182 175 170 176 177 174
219 215 228 251 233 240 246 240 235 241 244 241 247 255 256 255 258 257 251 247 249 252 253 251 249 247 242 233 223 211 199 197 199 201 199 190 183 180 176 175 180 181 179 186
222 213 216 225 245 261 266 247 228 233 247 244 247 253 255 256 264 259 250 245 248 251 252 253 251 250 246 231 212 193 192 194 196 197 195 190 184 181 179 184 189 188 186 193
217 218 219 223 238 247 255 249 234 234 254 249 246 251 254 244 252 258 251 243 249 249 247 246 249 250 242 227 187 184 190 195 203 200 194 185 182 185 188 189 187 190 191 197
199 217 223 231 243 254 263 257 190 217 250 258 244 246 247 238 247 267 268 257 254 250 247 239 230 221 223 188 166 184 197 205 197 174 163 169 181 184 183 166 157 154 154 160
210 215 221 225 237 247 234 190 211 244 278 283 271 260 254 254 262 270 272 269 267 262 249 211 196 213 189 165 170 184 205 195 158 151 157 165 165 156 148 145 142 140 149 169
226 224 223 223 239 262 225 233 248 266 271 276 277 279 273 271 267 270 273 270 264 245 213 178 170 184 279 135 175 200 198 148 151 144 149 149 139 140 152 160 158 156 169 192
241 236 239 251 256 261 261 265 269 267 268 273 276 278 274 272 271 270 268 260 242 215 201 178 168 180 215 82 155 203 162 150 152 155 157 153 152 155 151 158 173 185 194 203
238 228 238 251 261 269 261 254 259 265 268 273 280 275 266 262 261 258 252 242 234 222 209 189 198 204 217 192 196 167 152 156 159 158 159 154 161 166 161 162 198 222 233 229
232 230 235 248 251 252 263 264 259 259 261 264 270 275 270 257 258 256 249 238 219 215 198 193 201 209 223 209 205 144 133 163 166 167 169 163 164 168 172 161 161 247 258 294